Regional Weather Roundup
Issued by NWS State College, PA

Home | Current Version | Previous Version | Text Only | Print | Product List | Glossary On
Versions: 1 2 3 4 5 6 7 8 9 10 11 12 13 14 15 16 17 18 19 20 21 22 23 24 25 26 27 28 29 30 31 32 33 34 35 36 37 38 39 40 41 42 43 44 45 46 47 48 49 50
000
ASUS41 KCTP 241010
RWRCTP
PHLRWRCTP ALL

REGIONAL WEATHER ROUNDUP
NATIONAL WEATHER SERVICE STATE COLLEGE PA
600 AM EDT SUN SEP 24 2017

Note: "fair" indicates few or no clouds below 12,000 feet with no
significant weather and/or obstructions to visibility.

* = STATION THAT DOES NOT REPORT PRECIPITATION /E.G. RAIN...SNOW...ETC/
    THUNDER OR FOG.

PAZ002>004-007>009-013>016-020>023-029>032-241100-
WESTERN PENNSYLVANIA

CITY           SKY/WX    TMP DP  RH WIND       PRES   REMARKS
ERIE           CLEAR     64  62  93 CALM      30.16R
MEADVILLE      CLEAR     63  63 100 CALM      30.19R
FRANKLIN*      CLEAR     61  59  94 CALM      30.20S FOG
NEW CASTLE     FAIR      59  59 100 CALM      30.18S FOG
BEAVER COUNTY  NOT AVBL
BUTLER*        CLEAR     58  58 100 NE5       30.18R
PITTSBURGH INT CLEAR     62  58  86 CALM      30.16R
PITTSBURGH     CLEAR     64  59  83 CALM      30.16R
INDIANA*       CLEAR     59  59 100 CALM      30.21R
LATROBE        CLEAR     55  55 100 CALM      30.18R
WASHINGTON CO* CLEAR     55  52  88 CALM      30.16S
$$

PAZ004>006-010>012-017>019-024>028-033>037-041-042-045-046-049>053-241100-
CENTRAL PENNSYLVANIA

CITY           SKY/WX    TMP DP  RH WIND       PRES   REMARKS
BRADFORD       PTCLDY    55  55 100 CALM      30.22S FOG
DUBOIS         CLEAR     64  60  87 E3        30.19S
CLEARFIELD     CLEAR     58  58 100 CALM      30.20R
JOHNSTOWN      CLEAR     63  54  72 CALM      30.21R
ALTOONA        CLEAR     59  57  93 CALM      30.18R
STATE COLLEGE  PTCLDY    59  59 100 CALM      30.17R
WILLIAMSPORT   CLEAR     63  61  93 NW3       30.14R
SELINSGROVE    CLEAR     57  57 100 CALM      30.14R
FT INDIANTOWN  NOT AVBL
CAPITAL CITY   CLEAR     62  57  83 CALM      30.11R
HARRISBURG     CLEAR     65  62  90 N3        30.10R
YORK           CLEAR     56  56 100 CALM      30.11R
$$

PAZ038>040-043-044-047-048-054-055-060>062-067>071-241100-
EASTERN PENNSYLVANIA

CITY           SKY/WX    TMP DP  RH WIND       PRES   REMARKS
SCRANTON       CLEAR     61  59  93 E5        30.15R
MOUNT POCONO   CLEAR     66  60  81 N5        30.16R
ALLENTOWN      CLEAR     62  58  86 CALM      30.10R
QUAKERTOWN*    SUNNY     59  59 100 CALM      30.10R
READING        CLEAR     63  63 100 CALM      30.09R
LANCASTER      CLEAR     63  61  93 W6        30.10R
COATESVILLE    SUNNY     70  61  73 N5        30.11R
POTTSTOWN      CLEAR     61  61 100 CALM      30.10R
BLUE BELL      CLEAR     59  59 100 CALM      30.10R
DOYLESTOWN     CLEAR     66  61  84 CALM      30.08R
WILLOW GROVE   NOT AVBL
NORTH PHILA    CLEAR     70  60  70 CALM      30.08R
PHILADELPHIA   CLEAR     71  60  68 N6        30.06R
$$




USA.gov is the U.S. government's official web portal to all federal, state and local government web resources and services.